Regional Weather Roundup
Issued by NWS

Home | Current Version | Previous Version | Text Only | Print | Product List | Glossary Off
Versions: 1 2 3 4 5 6 7 8 9 10 11 12 13 14 15 16 17 18 19 20 21 22 23 24 25 26 27 28 29 30 31 32 33 34 35 36 37 38 39 40 41 42 43 44 45 46 47 48 49 50

000
ASUS43 KMKX 181310
RWRWI

WISCONSIN REGIONAL WEATHER ROUNDUP
NATIONAL WEATHER SERVICE MILWAUKEE/SULLIVAN WI
700 AM CST THU JAN 18 2018

NOTE: "FAIR" INDICATES FEW OR NO CLOUDS BELOW 12,000 FEET WITH NO
SIGNIFICANT WEATHER AND/OR OBSTRUCTIONS TO VISIBILITY.

WIZ001-002-006>008-014>016-023>028-181400-
NORTHWEST WISCONSIN

CITY           SKY/WX    TMP DP  RH WIND       PRES   REMARKS
SUPERIOR ARPT  CLOUDY    27  20  75 SW10      29.74S WCI  18
ASHLAND        NOT AVBL
HAYWARD        FAIR      19  14  81 SW7       29.78F WCI  10
SIREN          FAIR      26  19  73 SW10      29.80F WCI  16
CUMBERLAND     FAIR      21  16  79 SW10      29.83F WCI  10
RICE LAKE      FAIR      22  18  83 CALM      29.86F
CHETEK         FAIR      22  17  82 S3        29.86F
LADYSMITH      FAIR      19  16  87 S6        29.85F WCI  11
EAU CLAIRE     FAIR      21  16  81 CALM      29.90R
MENOMONIE      FAIR      24  17  76 SW6       29.91R WCI  17
NEW RICHMOND   FAIR      21  15  79 S8        29.88F WCI  11
OSCEOLA        FAIR      19  16  86 CALM      29.90F
$$

WIZ003>005-009-010-017-018-181400-
NORTH CENTRAL WISCONSIN

CITY           SKY/WX    TMP DP  RH WIND       PRES   REMARKS
MANITOWISH WTR FAIR      18  16  92 S6        29.77S WCI   9
ARBOR VITAE    FAIR      19  16  88 S3        29.78F
WOODRUFF       FAIR      19  16  88 S3        29.78F
RHINELANDER    NOT AVBL
EAGLE RIVER    FAIR      19  15  84 SW9       29.77F WCI   7
LAND O LAKES   FAIR      18  16  90 S3        29.77F
PHILLIPS       FAIR      20  16  85 SW8       29.80F WCI  10
TOMAHAWK       FAIR      19  15  84 CALM      29.82F
MEDFORD        FAIR      20  15  82 W8        29.86R WCI  10
MERRILL        FAIR      19  15  84 CALM      29.86R
$$

WIZ029-030-035-036-043>047-181400-
CENTRAL WISCONSIN

CITY           SKY/WX    TMP DP  RH WIND       PRES   REMARKS
WAUSAU         FAIR      18  14  84 SW8       29.85S WCI   8
MOSINEE        PTCLDY    18  16  93 S8        29.86F WCI   7
MARSHFIELD     FAIR      19  14  81 SW9       29.84F WCI   8
STEVENS POINT  FAIR      17  13  83 SW12      29.87F WCI   4
WAUPACA        FAIR      22  15  72 SW8       29.93F WCI  13
WAUTOMA        FAIR      17  12  80 SW7       29.95F WCI   8
WISC RAPIDS    FAIR      18  11  74 SW12      29.91F WCI   5
CAMP DOUGLAS   CLEAR     21  14  73 SW7       29.93F WCI  13
$$

WIZ011>013-019>022-031-037>040-048>050-181400-
NORTHEAST WISCONSIN

CITY           SKY/WX    TMP DP  RH WIND       PRES   REMARKS
ANTIGO         FAIR      19  15  86 W7        29.84R WCI   9
SHAWANO        FAIR      21  15  78 SW3       29.88F
OCONTO         FAIR      21  14  75 SW7       29.89S WCI  12
STURGEON BAY   FAIR      21  14  74 SW13      29.89F WCI   9
GREEN BAY      FAIR      20  12  71 SW10      29.91F WCI   9
MANITOWOC      FAIR      22  14  71 W10       29.94F WCI  11
APPLETON       PTCLDY    19  10  68 SW15      29.90F WCI   5
CLINTONVILLE   FAIR      21  14  73 SW9       29.89F WCI  11
OSHKOSH        FAIR      20  12  71 SW13G21   29.94F WCI   7
$$

WIZ032>034-041-042-053>061-181400-
SOUTHWEST WISCONSIN

CITY           SKY/WX    TMP DP  RH WIND       PRES   REMARKS
LA CROSSE      FAIR      20  12  71 SE8       29.98F WCI  10
SPARTA         FAIR      20  15  78 S5        29.96F WCI  14
VIROQUA        FAIR      17  13  86 SW9       29.97F WCI   5
BOSCOBEL       FAIR      16   9  74 SW8       30.05F WCI   5
PRAIRIE DU CHI FAIR      18  10  70 S5        30.06F WCI  11
PLATTEVILLE    FAIR      15  11  83 SW8       30.07F WCI   4
$$

WIZ056-057-062-063-064-067-068-181400-
SOUTH CENTRAL WISCONSIN

CITY           SKY/WX    TMP DP  RH WIND       PRES   REMARKS
REEDSBURG      FAIR      18  11  74 SW8       29.99F WCI   8
BARABOO/DELLS  FAIR      19  11  73 SW10      29.97F WCI   7
LONE ROCK      FAIR      17  11  77 SW5       30.04F WCI  10
MINERAL POINT  FAIR      19  14  79 SW9       30.02F WCI   9
MADISON        FAIR      18  10  71 SW7       30.03F WCI   9
MIDDLETON      FAIR      19  12  74 SW9       30.02F WCI   8
WATERTOWN      FAIR      16  11  82 S8        30.02F WCI   5
MONROE         FAIR      16  10  79 SW13      30.05F WCI   2
JANESVILLE     CLEAR     16  10  79 SW13      30.08F WCI   2
$$

WIZ051-052-058>065-066-070>072-181400-
SOUTHEAST WISCONSIN

CITY           SKY/WX    TMP DP  RH WIND       PRES   REMARKS
MILWAUKEE      FAIR      19  11  70 W13G23    30.03F WCI   6
WAUKESHA       CLEAR     16   9  73 SW9       30.04F WCI   4
MILWAUKEE/TIMM FAIR      19  10  68 SW12      30.02F WCI   7
RACINE         FAIR      19  10  68 SW14G26   30.05F WCI   6
BURLINGTON     FAIR      17   9  72 SW13      30.06F WCI   3
KENOSHA        FAIR      18   9  68 W16       30.06F WCI   3
FOND DU LAC    FAIR      19  10  68 SW12      29.97F WCI   7
SHEBOYGAN      FAIR      21  14  74 SW12      29.96F WCI   9
WEST BEND      FAIR      19  12  73 SW12      29.98F WCI   7
JUNEAU         FAIR      15  10  77 SW9       30.01F WCI   4
$$

LSZ147-162-181400-
LAKE SUPERIOR

STATION/POSITION TIME  TEMP    WIND        PRES    WAVE
                       AIR SEA DIR/SP/G            HT/PER
                 (UTC) (F)     (DEG/KT/KT) (MB)    (FT/S)
DEVILS ISLAND    1300   31     220/ 15/ 20 1006.2F
SAXON HARBOR     1240   31     180/ 11/ 18 1006.4F
$$

LMZ867-665-643>646-181400-
LAKE MICHIGAN

STATION/POSITION TIME  TEMP    WIND        PRES    WAVE
                       AIR SEA DIR/SP/G            HT/PER
                 (UTC) (F)     (DEG/KT/KT) (MB)    (FT/S)
NORTHPORT PIER   1248   21     230/  7     1011.5F
KEWAUNEE LAKESHO 1242   22     250/  6/  9 1012.5F
SHEBOYGAN LAKESH 1300   22     240/ 11/ 14 1015.6F
PORT WASHINGTON  1240   21     260/ 12/ 18 1016.9F
MILWAUKEE LAKESH 1250   21     260/ 18/ 24   N/A
KENOSHA   LAKESH 1300   19     250/ 14/ 20 1017.9
$$

TC  - TEMPERATURE IN CELSIUS
VSB - VISIBILITY IN STATUTE MILES
WCI - WIND CHILL INDEX
HX  - HEAT INDEX




USA.gov is the U.S. government's official web portal to all federal, state and local government web resources and services.